Flag for India Weather past 2 weeks in Lucknow, Uttar Pradesh, India

Now
75 °F

Haze.


Feels Like: 77 °F
Forecast: 65 / 86 °F
Wind: 3 mph from Southeast

Location: Lucknow / Amausi

Current Time: Feb 27, 2015 at 11:58:27 AM

Latest Report: Feb 27, 2015 at 10:30 AM


Visibility: 2 mi

Pressure: 29.92 "Hg

Humidity: 74%

Dew point: 66 °F

Location of LucknowLocation

Historic Weather in Lucknow — Graph

°F

Lucknow temperature yesterday

Maximum temperature yesterday: 82 °F (at 2:30 PM)
Minimum temperature yesterday: 64 °F (at 8:00 PM)
Average temperature yesterday: 75 °F

Past Weeks' High & Low Weather Summary

 TemperatureHumidityPressure
High88 °F (Feb 20, 2:00 PM)94% (Feb 16, 3:00 AM)30.04 "Hg (Feb 16, 3:00 AM)
Low50 °F (Feb 13, 5:30 AM)34% (Feb 13, 2:30 PM)29.71 "Hg (Feb 26, 4:00 AM)
Average71 °F69%29.88 "Hg
* Reported Feb 12 11:00 AM — Feb 27 10:30 AM, Lucknow, Weather by CustomWeather, © 2015

Note: Actual official high and low records may vary slightly from our data, if they occured in-between our weather recording intervals... More about our weather records

Advertising

Lucknow weather history for previous 24 hours

 ConditionsComfort  
Time TempWeatherWind HumidityBarometerVisibility
10:30 AM
Fri, Feb 27
75 °FHaze.3 mph74%29.92 "Hg1 mi
10:00 AM75 °FFog.3 mph69%29.92 "Hg1 mi
9:30 AM73 °FFog.3 mph74%29.89 "Hg1 mi
8:30 AM68 °FFog.2 mph88%29.89 "Hg1 mi
8:00 AM66 °FFog.2 mph94%29.86 "Hg1 mi
7:30 AM64 °FFog.No wind94%29.86 "Hg0 mi
6:00 AM64 °FFog.No wind94%29.83 "Hg1 mi
5:30 AM64 °FFog.No wind94%29.83 "Hg1 mi
4:00 AM64 °FFog.No wind94%29.80 "Hg1 mi
2:00 AM66 °FPartly cloudy.No wind94%29.80 "Hg1 mi
1:00 AM66 °FPartly cloudy.No wind94%29.83 "Hg1 mi
12:00 AM66 °FPartly cloudy.No wind94%29.83 "Hg1 mi
11:00 PM
Thu, Feb 26
66 °FLight rain. Partly cloudy.2 mph94%29.83 "Hg2 mi
8:00 PM64 °FMostly cloudy.6 mph88%29.80 "Hg1 mi
5:30 PM79 °FBroken clouds.5 mph65%29.74 "Hg2 mi
5:00 PM81 °FScattered clouds.3 mph66%29.74 "Hg2 mi
4:30 PM82 °FScattered clouds.3 mph58%29.74 "Hg2 mi
4:00 PM82 °FScattered clouds.5 mph58%29.74 "Hg2 mi
3:30 PM82 °FScattered clouds.6 mph58%29.71 "Hg2 mi
3:00 PM82 °FScattered clouds.6 mph58%29.74 "Hg2 mi
2:30 PM82 °FScattered clouds.6 mph45%29.74 "Hg2 mi
2:00 PM81 °FScattered clouds.6 mph62%29.74 "Hg2 mi
1:30 PM79 °FScattered clouds.6 mph70%29.77 "Hg2 mi
1:00 PM79 °FBroken clouds.9 mph70%29.77 "Hg2 mi
12:30 PM77 °FBroken clouds.9 mph74%29.80 "Hg2 mi
12:00 PM77 °FBroken clouds.12 mph74%29.80 "Hg2 mi
Weather by CustomWeather, © 2015

See weather overviewHow to use our weather pages